Weather History for Kansas City International, MO

Change the Weather History Date:

Tuesday, February 4, 2014

  Actual Average Record
Temperature  
Mean Temperature 20 °F 30 °F  
Max Temperature 25 °F 40 °F 72 °F (1946)
Min Temperature 15 °F 21 °F -8 °F (1905)
Degree Days  
Heating Degree Days 45 35  
Month to date heating degree days 187 140  
Since 1 July heating degree days 3631 3304  
Cooling Degree Days 0 0  
Month to date cooling degree days 0 0  
Year to date cooling degree days 0 0  
Moisture  
Dew Point 15 °F    
Average Humidity 76    
Maximum Humidity 84    
Minimum Humidity 68    
Precipitation  
Precipitation 0.40 in 0.05 in 0.72 in (1892)
Month to date precipitation 0.71 0.18  
Year to date precipitation 1.10 1.25  
Snow  
Snow 7.50 in 0.20 in 7.40 in (1924)
Month to date snowfall 10.2 0.8  
Since 1 July snowfall 21.5 11.6  
Snow Depth 2.00 in    
Sea Level Pressure  
Sea Level Pressure 30.15 in    
Wind  
Wind Speed 15 mph (NE)    
Max Wind Speed 29 mph    
Max Gust Speed 35 mph    
Visibility 3 miles    
Events Fog , Snow    
T = Trace of Precipitation, MM = Missing Value Source: NWS Daily Summary

Daily Weather History Graph

Daily Weather History Graph

Search for Another Location

Airport:

Trip Planner

Search our weather history database for the weather conditions in past years. The results will help you decide how hot, cold, wet, or windy it might be!

Date:

Astronomy

Feb. 04, 2014 Rise Set
Actual Time 7:23 AM CST 5:43 PM CST
Civil Twilight 6:54 AM CST 6:11 PM CST
Nautical Twilight 6:23 AM CST 6:43 PM CST
Astronomical Twilight 5:51 AM CST 7:14 PM CST
Moon 10:03 AM CST (2/4) 11:35 PM CST (2/4)
Length of Visible Light 11h 16m
Length of Day
10h 20m
Waxing Crescent, 29% of the Moon is Illuminated
Feb 4
Waxing Crescent
Feb 6
First Quarter
Feb 14
Full
Feb 22
Last Quarter
Mar 1
New

Hourly Weather History & Observations

Time (CST) Temp. Windchill Dew Point Humidity Pressure Visibility Wind Dir Wind Speed Gust Speed Precip Events Conditions
12:53 AM 24.1 °F 14.4 °F 18.0 °F 77% 30.24 in 10.0 mi East 9.2 mph - N/A   Overcast
1:53 AM 24.1 °F 16.0 °F 18.0 °F 77% 30.25 in 10.0 mi East 6.9 mph - N/A   Overcast
2:53 AM 24.1 °F 15.2 °F 17.1 °F 75% 30.25 in 10.0 mi ENE 8.1 mph - N/A   Overcast
3:53 AM 24.1 °F 14.4 °F 17.1 °F 75% 30.24 in 10.0 mi East 9.2 mph - N/A   Overcast
4:53 AM 24.1 °F 16.0 °F 16.0 °F 71% 30.25 in 10.0 mi ENE 6.9 mph - N/A   Overcast
5:53 AM 23.0 °F 13.1 °F 16.0 °F 74% 30.25 in 10.0 mi ENE 9.2 mph - N/A   Overcast
6:53 AM 23.0 °F 13.1 °F 15.1 °F 72% 30.24 in 10.0 mi ENE 9.2 mph - 0.00 in Snow Light Snow
7:53 AM 21.9 °F 8.7 °F 14.0 °F 72% 30.19 in 10.0 mi NE 15.0 mph - 0.00 in   Overcast
8:33 AM 21.9 °F 9.8 °F 14.0 °F 72% 30.19 in 2.0 mi East 12.7 mph - 0.00 in Snow Light Snow
8:53 AM 21.9 °F 9.8 °F 16.0 °F 78% 30.22 in 1.5 mi ENE 12.7 mph - 0.01 in Snow Light Snow
8:58 AM 21.0 °F 8.6 °F 16.0 °F 81% 30.18 in 0.8 mi East 12.7 mph - 0.00 in Snow Light Snow
9:20 AM 21.0 °F 7.1 °F 17.1 °F 85% 30.16 in 0.8 mi ENE 16.1 mph - 0.01 in Snow Light Snow
9:53 AM 21.0 °F 7.6 °F 17.1 °F 85% 30.17 in 0.8 mi ENE 15.0 mph - 0.02 in Snow Light Snow
10:06 AM 21.0 °F 7.6 °F 17.1 °F 85% 30.14 in 1.2 mi ENE 15.0 mph - 0.01 in Snow Light Snow
10:39 AM 21.0 °F 7.6 °F 17.1 °F 85% 30.13 in 0.5 mi ENE 15.0 mph - 0.02 in Fog , Snow Snow
10:51 AM 21.2 °F 7.8 °F 17.6 °F 86% 30.13 in 0.5 mi ENE 15.0 mph - 0.02 in Fog , Snow Snow
10:53 AM 21.0 °F 7.6 °F 17.1 °F 85% 30.17 in 0.5 mi ENE 15.0 mph - 0.02 in Fog , Snow Snow
11:53 AM 21.9 °F 8.2 °F 17.1 °F 82% 30.14 in 0.5 mi ENE 16.1 mph - 0.05 in Snow Snow
12:53 PM 21.9 °F 7.3 °F 18.0 °F 85% 30.09 in 0.5 mi NE 18.4 mph - 0.04 in Fog , Snow Snow
1:18 PM 21.9 °F 10.4 °F 18.0 °F 85% 30.06 in 0.2 mi NE 11.5 mph - 0.04 in Fog , Snow Heavy Snow
1:37 PM 21.9 °F 9.8 °F 18.0 °F 85% 30.07 in 0.5 mi NE 12.7 mph - 0.06 in Fog , Snow Snow
1:53 PM 21.9 °F 11.0 °F 18.0 °F 85% 30.12 in 0.5 mi NE 10.4 mph - 0.06 in Fog , Snow Snow
2:53 PM 21.9 °F 7.8 °F 17.1 °F 82% 30.07 in 0.5 mi NE 17.3 mph - 0.07 in Snow Snow
3:45 PM 21.0 °F 6.2 °F 17.1 °F 85% 30.03 in 0.5 mi NE 18.4 mph - 0.22 in Fog , Snow Snow
3:53 PM 19.9 °F 3.2 °F 16.0 °F 85% 30.06 in 0.5 mi NE 23.0 mph 28.8 mph 0.22 in Snow Snow
4:53 PM 19.9 °F 5.7 °F 15.1 °F 81% 30.06 in 0.8 mi NE 16.1 mph - 0.03 in Snow Light Snow
5:06 PM 19.9 °F 5.7 °F 15.1 °F 81% 30.03 in 1.0 mi NE 16.1 mph - 0.47 in Snow Light Snow
5:53 PM 19.0 °F 3.6 °F 15.1 °F 85% 30.07 in 1.5 mi NNE 18.4 mph 24.2 mph 0.51 in Snow Light Snow
6:31 PM 19.0 °F 4.0 °F 15.1 °F 85% 30.06 in 1.0 mi NNE 17.3 mph - N/A Snow Light Snow
6:53 PM 19.0 °F 2.7 °F 14.0 °F 81% 30.10 in 1.0 mi NNE 20.7 mph - N/A Snow Light Snow
7:36 PM 18.0 °F 2.2 °F 14.0 °F 84% 30.08 in 1.0 mi NNE 18.4 mph 27.6 mph N/A Snow Light Snow
7:53 PM 19.0 °F 2.7 °F 14.0 °F 81% 30.12 in 1.0 mi NNE 20.7 mph 27.6 mph N/A Snow Light Snow
8:02 PM 19.0 °F 2.7 °F 14.0 °F 81% 30.08 in 0.5 mi NNE 20.7 mph - N/A Snow Snow
8:53 PM 19.0 °F 2.4 °F 14.0 °F 81% 30.15 in 0.8 mi North 21.9 mph - N/A Snow Light Snow
9:10 PM 19.0 °F 4.5 °F 14.0 °F 81% 30.12 in 0.8 mi North 16.1 mph - N/A Snow Light Snow
9:19 PM 18.0 °F 2.2 °F 14.0 °F 84% 30.12 in 0.8 mi NNE 18.4 mph - N/A Snow Light Snow
9:51 PM 17.6 °F 0.9 °F 14.0 °F 86% 30.13 in 1.0 mi North 20.7 mph - N/A Snow Light Snow
9:53 PM 18.0 °F 0.9 °F 14.0 °F 84% 30.17 in 1.0 mi North 21.9 mph - N/A Snow Light Snow
10:38 PM 18.0 °F 2.2 °F 12.9 °F 81% 30.13 in 1.2 mi North 18.4 mph - N/A Snow Light Snow
10:49 PM 17.6 °F 1.3 °F 12.2 °F 79% 30.13 in 1.2 mi North 19.6 mph - N/A Snow Light Snow
10:53 PM 17.1 °F -1.0 °F 12.9 °F 84% 30.18 in 1.2 mi North 24.2 mph 27.6 mph N/A Snow Light Snow
11:05 PM 17.1 °F -0.6 °F 12.0 °F 81% 30.14 in 1.2 mi North 23.0 mph - N/A Snow Light Snow
11:33 PM 16.0 °F -2.5 °F 10.9 °F 81% 30.14 in 1.2 mi North 24.2 mph - N/A Snow Light Snow
11:53 PM 15.1 °F -2.5 °F 10.0 °F 80% 30.19 in 1.0 mi North 20.7 mph 33.4 mph N/A Snow Light Snow